Location: Aranbee
(34.0885°N, 118.2342°W)
Time: 03:43:35
(UTC+00:00)

Courier 1B Rocket - Pass Details

Date: 01 December 2020
Orbit: 920 x 1202 km, 28.2° (Epoch: 16 January)

Event Time Altitude Azimuth Distance (km) Brightness Sun altitude
Exits shadow 12:39:28 25° 225° (SW) 2,211 6.5 -24.6°
Maximum altitude 12:43:46 47° 167° (SSE) 1,548 6.1 -23.8°
Drops below altitude 10° 12:51:07 10° 96° (E) 3,108 8.8 -22.3°
Sets 12:54:03 0° 91° (E) 4,051 9.7 -21.7°
